sat.trackr.live / text

‹ back to catalog

STARLINK-32628

NORAD 62122 · 2024-222J

PAYLOAD ACTIVE UNKNOWN

§ Identity

Operator
Country
US
Launch date
2024-11-27
Launch site
AFETR
Launch vehicle
Mass (kg)
RCS (m²)

Purposes: comms

External: N2YO · Heavens-Above · Gunter

§ Orbital elements

Epoch: 2026-09-20T23:03:40.839840Z

Period
94.27 min
Inclination
43.0041°
Eccentricity
0.0001403
Mean motion
15.27584246 rev/d
Perigee alt
482.1 km
Apogee alt
484.0 km
Semi-major
6,861.2 km
B*
2.6730e-4
RAAN
113.3549°
Arg perigee
262.7392°
Mean anomaly
97.3300°
Rev number
10,278

§ Raw data

STARLINK-326281 62122U 24222J   26263.96088935  .00007101  00000+0  26730-3 0  99912 62122  43.0041 113.3549 0001403 262.7392  97.3300 15.27584246102786

JSON: /api/v1/satellites/62122 · /tle

For live sub-satellite position, see the globe view (requires WebGL).

§ Visibility from observer

Set your observer location to see the next 7 days of passes ≥ 10°. The values pass through the URL so the page stays shareable.

No JS? Fill the form by hand. The geolocation button needs JavaScript.